• In Russia
  • List of Countries
  • For 7 days
  • Water Temperature
  • Satellite Maps
  • Weather Map
  • Weather Widgets
  • user-avatar
    Login

    Hourly Weather Kalgoorlie

    Today, 23 August, Wednesday

    Time Temperature Precipitation Wind Pressure Humidity
    00:00 +13°C° 0 mm 5 mps 734 mmHg 59%
    01:00 +12°C° 0 mm 5 mps 734 mmHg 63%
    02:00 +12°C° 0 mm 5 mps 734 mmHg 68%
    03:00 +10°C° 0 mm 5 mps 735 mmHg 71%
    04:00 +10°C° 0 mm 5 mps 735 mmHg 75%
    05:00 +9°C° 0 mm 5 mps 735 mmHg 78%
    06:00 +10°C° 0 mm 6 mps 735 mmHg 76%
    07:00 +10°C° 0 mm 6 mps 736 mmHg 74%
    08:00 +11°C° 0 mm 7 mps 736 mmHg 71%
    09:00 +14°C° 0 mm 7 mps 736 mmHg 63%
    10:00 +15°C° 0 mm 7 mps 736 mmHg 55%
    11:00 +17°C° 0 mm 7 mps 736 mmHg 47%
    12:00 +19°C° 0 mm 6 mps 736 mmHg 44%
    13:00 +20°C° 0 mm 6 mps 735 mmHg 40%
    14:00 +21°C° 0 mm 4 mps 735 mmHg 36%
    15:00 +21°C° 0 mm 4 mps 735 mmHg 37%
    16:00 +21°C° 0 mm 4 mps 735 mmHg 38%
    17:00 +20°C° 0 mm 4 mps 735 mmHg 39%
    18:00 +19°C° 0 mm 5 mps 736 mmHg 42%
    19:00 +17°C° 0 mm 5 mps 736 mmHg 45%
    20:00 +17°C° 0 mm 5 mps 736 mmHg 47%
    21:00 +16°C° 0 mm 6 mps 737 mmHg 52%
    22:00 +15°C° 0 mm 7 mps 737 mmHg 58%
    23:00 +13°C° 0 mm 8 mps 737 mmHg 63%

    Tomorrow, 24 August, Thursday

    Time Temperature Precipitation Wind Pressure Humidity
    00:00 +13°C° 0 mm 8 mps 737 mmHg 65%
    01:00 +13°C° 0 mm 8 mps 737 mmHg 66%
    02:00 +12°C° 0 mm 8 mps 737 mmHg 68%
    03:00 +12°C° 0 mm 7 mps 737 mmHg 69%
    04:00 +12°C° 0 mm 7 mps 737 mmHg 70%
    05:00 +11°C° 0 mm 7 mps 737 mmHg 71%
    06:00 +11°C° 0 mm 7 mps 737 mmHg 71%
    07:00 +12°C° 0 mm 8 mps 737 mmHg 70%
    08:00 +12°C° 0 mm 8 mps 737 mmHg 69%
    09:00 +13°C° 0 mm 8 mps 737 mmHg 65%
    10:00 +13°C° 0 mm 8 mps 737 mmHg 61%
    11:00 +15°C° 0 mm 8 mps 737 mmHg 57%
    12:00 +16°C° 0 mm 8 mps 737 mmHg 56%
    13:00 +16°C° 0 mm 8 mps 736 mmHg 55%
    14:00 +16°C° 0 mm 8 mps 736 mmHg 54%
    15:00 +15°C° 0 mm 7 mps 736 mmHg 56%
    16:00 +15°C° 0 mm 7 mps 736 mmHg 58%
    17:00 +15°C° 0 mm 6 mps 736 mmHg 61%
    18:00 +14°C° 0.3 mm 6 mps 736 mmHg 64%
    19:00 +14°C° 0.3 mm 6 mps 736 mmHg 68%
    20:00 +13°C° 0.3 mm 6 mps 736 mmHg 72%
    21:00 +13°C° 0.8 mm 6 mps 736 mmHg 75%
    22:00 +11°C° 0.8 mm 7 mps 736 mmHg 77%
    23:00 +11°C° 0.8 mm 7 mps 736 mmHg 80%

    Day after tomorrow, 25 August, Friday

    Time Temperature Precipitation Wind Pressure Humidity
    00:00 +11°C° 2.6 mm 6 mps 735 mmHg 83%
    01:00 +12°C° 2.6 mm 5 mps 735 mmHg 85%
    02:00 +12°C° 2.6 mm 4 mps 735 mmHg 88%
    03:00 +11°C° 2.3 mm 4 mps 735 mmHg 89%
    04:00 +10°C° 2.3 mm 5 mps 735 mmHg 90%
    05:00 +10°C° 2.3 mm 6 mps 734 mmHg 91%
    06:00 +10°C° 1.6 mm 6 mps 735 mmHg 90%
    07:00 +10°C° 1.6 mm 6 mps 735 mmHg 90%
    08:00 +10°C° 1.6 mm 6 mps 735 mmHg 90%
    09:00 +11°C° 0.2 mm 7 mps 735 mmHg 85%
    10:00 +12°C° 0.2 mm 7 mps 735 mmHg 80%
    11:00 +13°C° 0.2 mm 8 mps 735 mmHg 75%
    12:00 +14°C° 0.1 mm 7 mps 734 mmHg 76%
    13:00 +14°C° 0.1 mm 7 mps 733 mmHg 77%
    14:00 +13°C° 0.1 mm 6 mps 732 mmHg 78%
    15:00 +13°C° 0.1 mm 6 mps 733 mmHg 78%
    16:00 +13°C° 0.1 mm 5 mps 733 mmHg 79%
    17:00 +13°C° 0.1 mm 5 mps 733 mmHg 80%
    18:00 +13°C° 0 mm 5 mps 733 mmHg 81%
    19:00 +13°C° 0 mm 4 mps 734 mmHg 82%
    20:00 +13°C° 0 mm 4 mps 734 mmHg 84%
    21:00 +12°C° 0 mm 5 mps 734 mmHg 85%
    22:00 +12°C° 0 mm 5 mps 734 mmHg 86%
    23:00 +12°C° 0 mm 5 mps 734 mmHg 87%

    26 August, Saturday

    Time Temperature Precipitation Wind Pressure Humidity
    00:00 +10°C° 0 mm 5 mps 734 mmHg 88%
    01:00 +11°C° 0 mm 4 mps 734 mmHg 90%
    02:00 +10°C° 0 mm 4 mps 734 mmHg 91%
    03:00 +10°C° 0 mm 4 mps 734 mmHg 91%
    04:00 +10°C° 0 mm 4 mps 734 mmHg 91%
    05:00 +10°C° 0 mm 4 mps 734 mmHg 92%
    06:00 +10°C° 0 mm 4 mps 735 mmHg 89%
    07:00 +10°C° 0 mm 5 mps 735 mmHg 86%
    08:00 +10°C° 0 mm 5 mps 735 mmHg 83%
    09:00 +13°C° 0 mm 6 mps 735 mmHg 75%
    10:00 +15°C° 0 mm 6 mps 735 mmHg 67%
    11:00 +16°C° 0 mm 6 mps 735 mmHg 60%
    12:00 +17°C° 0 mm 6 mps 735 mmHg 57%
    13:00 +17°C° 0 mm 6 mps 735 mmHg 55%
    14:00 +19°C° 0 mm 6 mps 734 mmHg 53%
    15:00 +17°C° 0 mm 6 mps 735 mmHg 54%
    16:00 +17°C° 0 mm 6 mps 735 mmHg 55%
    17:00 +17°C° 0 mm 5 mps 735 mmHg 56%
    18:00 +16°C° 0 mm 6 mps 735 mmHg 57%
    19:00 +16°C° 0 mm 6 mps 736 mmHg 58%
    20:00 +16°C° 0 mm 6 mps 737 mmHg 59%
    21:00 +15°C° 0 mm 6 mps 737 mmHg 62%
    22:00 +14°C° 0 mm 6 mps 736 mmHg 65%
    23:00 +14°C° 0 mm 7 mps 736 mmHg 68%

    27 August, Sunday

    Time Temperature Precipitation Wind Pressure Humidity
    00:00 +13°C° 0 mm 6 mps 736 mmHg 71%
    01:00 +13°C° 0 mm 6 mps 736 mmHg 75%
    02:00 +11°C° 0 mm 6 mps 736 mmHg 78%
    03:00 +11°C° 0 mm 6 mps 736 mmHg 81%
    04:00 +10°C° 0 mm 6 mps 736 mmHg 84%
    05:00 +10°C° 0 mm 6 mps 736 mmHg 86%
    06:00 +10°C° 0 mm 7 mps 736 mmHg 84%
    07:00 +11°C° 0 mm 7 mps 737 mmHg 81%
    08:00 +11°C° 0 mm 8 mps 737 mmHg 79%
    09:00 +14°C° 0 mm 7 mps 737 mmHg 72%
    10:00 +15°C° 0 mm 7 mps 736 mmHg 65%
    11:00 +17°C° 0 mm 7 mps 736 mmHg 57%
    12:00 +17°C° 0 mm 7 mps 735 mmHg 54%
    13:00 +19°C° 0 mm 6 mps 735 mmHg 51%
    14:00 +20°C° 0 mm 6 mps 734 mmHg 48%
    15:00 +20°C° 0 mm 6 mps 734 mmHg 49%
    16:00 +19°C° 0 mm 6 mps 734 mmHg 49%
    17:00 +19°C° 0 mm 6 mps 734 mmHg 50%
    18:00 +17°C° 0 mm 6 mps 734 mmHg 53%
    19:00 +16°C° 0 mm 6 mps 735 mmHg 56%
    20:00 +16°C° 0 mm 6 mps 735 mmHg 59%
    21:00 +15°C° 0 mm 6 mps 735 mmHg 61%
    22:00 +15°C° 0 mm 7 mps 735 mmHg 63%
    23:00 +15°C° 0 mm 7 mps 735 mmHg 64%

    28 August, Monday

    Time Temperature Precipitation Wind Pressure Humidity
    00:00 +14°C° 0 mm 7 mps 734 mmHg 69%
    01:00 +12°C° 0 mm 7 mps 734 mmHg 74%
    02:00 +12°C° 0 mm 7 mps 734 mmHg 78%
    03:00 +11°C° 0.1 mm 6 mps 734 mmHg 81%
    04:00 +11°C° 0.1 mm 6 mps 734 mmHg 83%
    05:00 +11°C° 0.1 mm 6 mps 734 mmHg 86%
    06:00 +11°C° 0 mm 6 mps 734 mmHg 84%
    07:00 +11°C° 0 mm 6 mps 735 mmHg 82%
    08:00 +11°C° 0 mm 6 mps 735 mmHg 80%
    09:00 +13°C° 0 mm 5 mps 735 mmHg 76%
    10:00 +14°C° 0 mm 5 mps 734 mmHg 72%
    11:00 +15°C° 0 mm 4 mps 734 mmHg 67%
    12:00 +17°C° 0 mm 4 mps 733 mmHg 61%
    13:00 +19°C° 0 mm 4 mps 733 mmHg 56%
    14:00 +20°C° 0 mm 4 mps 732 mmHg 50%
    15:00 +20°C° 0 mm 4 mps 733 mmHg 50%
    16:00 +20°C° 0 mm 4 mps 733 mmHg 50%
    17:00 +20°C° 0 mm 4 mps 733 mmHg 49%
    18:00 +19°C° 0 mm 4 mps 733 mmHg 52%
    19:00 +18°C° 0 mm 4 mps 733 mmHg 54%
    20:00 +17°C° 0 mm 4 mps 734 mmHg 56%
    21:00 +15°C° 0 mm 4 mps 734 mmHg 59%
    22:00 +15°C° 0 mm 4 mps 733 mmHg 62%
    23:00 +14°C° 0 mm 4 mps 733 mmHg 65%
    Show more